Regional Weather Roundup
Issued by NWS

Home | Current Version | Previous Version | Text Only | Print | Product List | Glossary On
Versions: 1 2 3 4 5 6 7 8 9 10 11 12 13 14 15 16 17 18 19 20 21 22 23 24 25 26 27 28 29 30 31 32 33 34 35 36 37 38 39 40 41 42 43 44 45 46 47 48 49 50
000
ASUS43 KLOT 031808
RWRIL

ILLINOIS REGIONAL WEATHER ROUNDUP
NATIONAL WEATHER SERVICE CHICAGO/ROMEOVILLE IL
100 PM CDT MON AUG 03 2015

NOTE: "FAIR" INDICATES FEW OR NO CLOUDS BELOW 12,000 FEET WITH NO
SIGNIFICANT WEATHER AND/OR OBSTRUCTIONS TO VISIBILITY.

* THESE STATIONS ARE NOT UNDER NWS QUALITY CONTROL. THEY ALSO MAY NOT
  REPORT WEATHER SUCH AS PRECIPITATION OR FOG.

ILZ001-002-007-009-015-016-024-031900-
NORTHWEST ILLINOIS

CITY           SKY/WX    TMP DP  RH WIND       PRES   REMARKS
MOLINE         SUNNY     81  52  36 NW9       29.93S HX  80
6HR MIN TEMP:  69; 6HR MAX TEMP:  82;

STERLING*      SUNNY     81  52  36 N8        29.89  HX  80
SAVANNA*       SUNNY     80  47  31 NW8       29.91F
$$

ILZ003-004-008-010-011-017-018-031900-
NORTH CENTRAL ILLINOIS

CITY           SKY/WX    TMP DP  RH WIND       PRES   REMARKS
ROCKFORD       MOSUNNY   81  47  30 NW14      29.90F HX  80
6HR MIN TEMP:  67; 6HR MAX TEMP:  81;

FREEPORT*      SUNNY     77  50  38 NW12G18   29.93S
ROCHELLE*      SUNNY     78  52  40 NW10G18   29.91S
DE KALB*       SUNNY     78  52  40 NW8G16    29.90S
PERU*          SUNNY     78  48  34 NW12      29.91R
$$

ILZ005-006-012>014-019>023-031900-
NORTHEAST ILLINOIS

CITY           SKY/WX    TMP DP  RH WIND       PRES   REMARKS
CHICAGO-OHARE  MOSUNNY   80  49  33 W14       29.86S
6HR MIN TEMP:  69; 6HR MAX TEMP:  80;

CHICAGO-MIDWAY MOSUNNY   82  51  34 W16G23    29.86S HX  81
6HR MIN TEMP:  71; 6HR MAX TEMP:  82;

AURORA         SUNNY     79  53  40 NW10      29.89S
6HR MIN TEMP:  66; 6HR MAX TEMP:  79;

LANSING*       SUNNY     82  54  38 NW9       29.86S HX  81
JOLIET*        SUNNY     82  58  43 NW6       29.88R HX  82
WAUKEGAN       SUNNY     78  49  35 NW8G20    29.85F
6HR MIN TEMP:  65; 6HR MAX TEMP:  78;

DUPAGE AIRPORT SUNNY     79  49  34 NW15      29.88R
6HR MIN TEMP:  68; 6HR MAX TEMP:  79;

KANKAKEE*      MOSUNNY   81  64  55 W9        29.87S HX  83
WHEELING       NOT AVBL
MORRIS*        SUNNY     79  59  50 NW15      29.88R HX  80
ROMEOVILLE*    SUNNY     78  56  47 NW8G20    29.87S
NORTHERLY ISL    N/A     80  49  33 NW2         N/A
$$

LMZ740>746-031900-
SOUTHERN LAKE MICHIGAN

STATION/POSITION SKY/WX   TEMP    WIND        PRES    VSBY  WAVE
                          AIR SEA DIR/SP/G                  HT/PER
                          (F)     (DEG/KT/KT) (MB)    (MI)  (FT/S)
HARRISON CRIB              72     360/ 11/ 13   N/A
BURNHAM HARBOR             79     300/  9/ 14   N/A
CALUMET HARBOR             75      10/  9/ 12   N/A
BURNS HARBOR               71     360/  7/  9 1011.9S
MICHIGAN CITY              72     310/  9/ 11   N/A
MICHIGAN CITY 6N           71 74  360/ 10/ 12   N/A           3/ 4
ST. JOSEPH                 70 73  330/ 10/ 12   N/A           3/ 4
$$

ILZ025>027-034>036-040-047-049-050-058-095>099-031900-
WEST-CENTRAL ILLINOIS

CITY           SKY/WX    TMP DP  RH WIND       PRES   REMARKS
QUINCY         SUNNY     81  64  56 NW8       29.93F HX  82
GALESBURG*       N/A    N/A N/A N/A MISG        N/A
MACOMB*        SUNNY     80  62  54 NW5       29.96R HX  81
JACKSONVILLE*  SUNNY     85  69  58 W7        29.91S HX  89
PITTSFIELD*    PTSUNNY   84  64  50 W7        29.93S HX  85
$$

ILZ028>032-037-038-041>044-048-051>054-059>061-031900-
CENTRAL ILLINOIS

CITY           SKY/WX    TMP DP  RH WIND       PRES   REMARKS
PONTIAC        SUNNY     81  66  61 NW9       29.90S HX  83
BLOOMINGTON    PTSUNNY   82  69  64 NW14      29.91S HX  85
DECATUR        MOSUNNY   86  66  51 W14       29.89S HX  88
PEORIA         MOSUNNY   83  62  49 N7        29.91S HX  84
6HR MIN TEMP:  72; 6HR MAX TEMP:  84;

LACON*         SUNNY     79  58  48 NW8       29.90S HX  80
LINCOLN*       MOSUNNY   85  66  52 W9        29.89S HX  88
SPRINGFIELD    SUNNY     84  69  60 NW12      29.91R HX  88
6HR MIN TEMP:  69; 6HR MAX TEMP:  84;

TAYLORVILLE    MOSUNNY   82  68  61 W7        29.90S HX  85
$$

ILZ033-039-045-046-055>057-062-063-031900-
EAST-CENTRAL ILLINOIS

CITY           SKY/WX    TMP DP  RH WIND       PRES   REMARKS
CHAMPAIGN      SUNNY     84  69  60 W10       29.88S HX  88
DANVILLE*      PTSUNNY   82  68  62 W7        29.85R HX  85
RANTOUL*       MOSUNNY  N/A N/A N/A NW12      29.88S
MATTOON        MOSUNNY   87  62  43 W12G20    29.88S HX  87
PARIS*         MOSUNNY   86  69  57 W14       29.87S HX  90
$$

ILZ079-100>102-031900-
SOUTHWEST ILLINOIS

CITY           SKY/WX    TMP DP  RH WIND       PRES   REMARKS
ALTON          MOSUNNY   86  66  51 W9        29.91S HX  88
BELLEVILLE     MOSUNNY   91  68  48 VRB1      29.89S HX  94
CAHOKIA*       MOSUNNY   93  63  36 VRB7      29.90S HX  94
SPARTA*        SUNNY     89  71  55 W8        29.91F HX  95
$$

ILZ064>066-069>071-074>076-080>082-084>086-088>090-092>094-031900-
SOUTH-CENTRAL ILLINOIS

CITY           SKY/WX    TMP DP  RH WIND       PRES   REMARKS
CARBONDALE     SUNNY     89  72  56 VRB6      29.90F HX  96
6HR MIN TEMP:  75; 6HR MAX TEMP:  89;

CAIRO*         SUNNY     90  73  57 SW8       29.92S HX  97
EFFINGHAM*     MOSUNNY   88  62  42 W13       29.90S HX  89
MARION         MOSUNNY   91  73  55 W9        29.91F HX 100
MT. VERNON     SUNNY     90  66  45 SW7       29.90S HX  92
CENTRALIA*     SUNNY     90  62  38 W9        29.90S HX  90
SALEM*         SUNNY     89  63  40 W9G17     29.90S HX  90
METROPOLIS*    SUNNY     91  76  61 W6        29.92F HX 101
$$

ILZ067-068-072-073-078-083-087-091-031900-
SOUTHEAST ILLINOIS

CITY           SKY/WX    TMP DP  RH WIND       PRES   REMARKS
LAWRENCEVILLE  SUNNY     92  67  43 W13G20    29.87F HX  95
FLORA*         SUNNY     90  64  41 W12G17    29.89S HX  91
FAIRFIELD*     SUNNY     89  67  48 W3        29.88R HX  92
HARRISBURG*    SUNNY     91  69  48 W8        29.91S HX  95
ROBINSON*      SUNNY     88  69  52 W9        29.87S HX  92
CARMI*         SUNNY     89  63  41 W6        29.88F HX  89
$$

ABBREVIATIONS USED IN REMARKS
   TC - TEMPERATURE IN CELSIUS
  WCI - WIND CHILL INDEX
   HX - HEAT INDEX
  VSB - VISIBILITY
$$



USA.gov is the U.S. government's official web portal to all federal, state and local government web resources and services.